Weather History for Tallahassee, FL

Change the Weather History Date:

Saturday, December 1, 2012

  Actual Average Record
Temperature  
Mean Temperature 61 °F 56 °F  
Max Temperature 78 °F 69 °F 83 °F (1931)
Min Temperature 44 °F 44 °F 20 °F (1979)
Degree Days  
Heating Degree Days 4    
Month to date heating degree days 4  
Since 1 July heating degree days 262  
Cooling Degree Days 0    
Month to date cooling degree days 0  
Year to date cooling degree days 2958  
Growing Degree Days 11 (Base 50)    
Moisture  
Dew Point 47 °F    
Average Humidity 62    
Maximum Humidity 92    
Minimum Humidity 32    
Precipitation  
Precipitation 0.00 in 0.13 in 2.85 in (1896)
Month to date precipitation 0.00 0.13  
Year to date precipitation 56.04 55.46  
Sea Level Pressure  
Sea Level Pressure 30.27 in    
Wind  
Wind Speed 2 mph (ENE)    
Max Wind Speed 12 mph    
Max Gust Speed 14 mph    
Visibility 10 miles    
Events Fog    
T = Trace of Precipitation, MM = Missing Value Source: NWS Daily Summary

Daily Weather History Graph

Daily Weather History Graph

Search for Another Location

Airport:

Trip Planner

Search our weather history database for the weather conditions in past years. The results will help you decide how hot, cold, wet, or windy it might be!

Date:

Astronomy

Dec. 01, 2012 Rise Set
Actual Time 7:16 AM EST 5:36 PM EST
Civil Twilight 6:50 AM EST 6:02 PM EST
Nautical Twilight 6:21 AM EST 6:32 PM EST
Astronomical Twilight 5:51 AM EST 7:01 PM EST
Moon 8:22 PM EST 9:31 AM EST
Length of Visible Light 11h 11m
Length of Day
10h 19m
Waning Gibbous, 92% of the Moon is Illuminated
Dec 1
Waning Gibbous
Dec 6
Last Quarter
Dec 13
New
Dec 20
First Quarter
Dec 28
Full

Hourly Weather History & Observations

Time (EST) Temp. Dew Point Humidity Pressure Visibility Wind Dir Wind Speed Gust Speed Precip Events Conditions
12:53 AM 50.0 °F 46.0 °F 86% 30.26 in 10.0 mi Calm Calm - N/A   Clear
1:53 AM 48.9 °F 45.0 °F 86% 30.25 in 10.0 mi Calm Calm - N/A   Clear
2:53 AM 46.9 °F 43.0 °F 86% 30.25 in 10.0 mi Calm Calm - N/A   Clear
3:53 AM 46.9 °F 43.0 °F 86% 30.25 in 10.0 mi Calm Calm - N/A   Clear
4:53 AM 46.0 °F 42.1 °F 86% 30.25 in 10.0 mi Calm Calm - N/A   Clear
5:53 AM 45.0 °F 42.1 °F 90% 30.25 in 6.0 mi Calm Calm - N/A   Partly Cloudy
6:53 AM 44.1 °F 42.1 °F 93% 30.27 in 6.0 mi Calm Calm - N/A   Partly Cloudy
7:53 AM 45.0 °F 42.1 °F 90% 30.29 in 10.0 mi Calm Calm - N/A Fog Patches of Fog
8:53 AM 55.9 °F 51.1 °F 84% 30.32 in 10.0 mi Calm Calm - N/A   Mostly Cloudy
9:53 AM 60.1 °F 53.1 °F 78% 30.33 in 10.0 mi Calm Calm - N/A   Mostly Cloudy
10:53 AM 70.0 °F 55.0 °F 59% 30.32 in 10.0 mi ENE 5.8 mph - N/A   Mostly Cloudy
11:53 AM 73.0 °F 52.0 °F 48% 30.30 in 10.0 mi East 5.8 mph - N/A   Clear
12:53 PM 75.0 °F 46.9 °F 37% 30.27 in 10.0 mi Calm Calm - N/A   Scattered Clouds
1:53 PM 77.0 °F 46.9 °F 34% 30.25 in 10.0 mi ENE 8.1 mph - N/A   Partly Cloudy
2:53 PM 78.1 °F 46.0 °F 32% 30.24 in 10.0 mi NNE 4.6 mph - N/A   Scattered Clouds
3:53 PM 77.0 °F 46.0 °F 33% 30.24 in 10.0 mi NNE 3.5 mph - N/A   Scattered Clouds
4:53 PM 75.0 °F 48.0 °F 38% 30.24 in 10.0 mi ENE 5.8 mph - N/A   Partly Cloudy
5:53 PM 70.0 °F 48.9 °F 47% 30.25 in 10.0 mi Calm Calm - N/A   Partly Cloudy
6:53 PM 64.0 °F 51.1 °F 63% 30.26 in 10.0 mi Calm Calm - N/A   Clear
7:53 PM 64.0 °F 52.0 °F 65% 30.27 in 10.0 mi East 6.9 mph - N/A   Clear
8:53 PM 62.1 °F 53.1 °F 72% 30.28 in 10.0 mi East 4.6 mph - N/A   Clear
9:53 PM 55.9 °F 48.9 °F 77% 30.28 in 10.0 mi Calm Calm - N/A   Clear
10:53 PM 54.0 °F 50.0 °F 86% 30.28 in 10.0 mi Calm Calm - N/A   Clear
11:53 PM 53.1 °F 48.9 °F 86% 30.28 in 10.0 mi Calm Calm - N/A   Clear